Location: Sedan
(39.2354°N, 78.5718°W)
Time: 14:07:21
(UTC+00:00)

Envisat - Pass Details

Date: 09 December 2021
Orbit: 764 x 766 km, 98.2° (Epoch: 19 January)

Event Time Altitude Azimuth Distance (km) Brightness Sun altitude
Rises 10:47:24 0° 5° (N) 3,240 6.1 -17.8°
Reaches altitude 10° 10:49:48 10° 359° (N) 2,309 5.3 -17.4°
Maximum altitude 10:54:36 44° 289° (WNW) 1,055 3.2 -16.5°
Drops below altitude 10° 10:59:22 10° 218° (SW) 2,294 5.3 -15.6°
Sets 11:01:45 0° 212° (SSW) 3,215 6.1 -15.1°
